Total_Precipitation_Accumulation
0.09 0.13 0.20 0.19 0.18 0.20 0.25 0.35 0.46 0.58 0.54 0.58 0.73 1.05 1.29 1.49 1.46 1.31 1.40 1.67 1.77 1.74 1.88 2.09 2.61 3.28 3.68 4.21 4.71 4.71 4.52 4.61 4.74 4.77 4.56 4.72 4.92 5.25 5.56 5.49 5.38 5.27 5.15 5.06
0.13 0.13 0.11 0.13 0.17 0.17 0.22 0.32 0.44 0.58 0.56 0.64 0.78 1.09 1.46 1.61 1.63 1.57 1.59 1.84 1.80 1.86 2.07 2.36 2.89 3.24 3.60 3.95 4.22 4.53 4.68 4.73 4.54 4.92 5.22 5.52 5.89 5.95 6.23 6.48 6.52 6.29 5.99 5.79
0.14 0.10 0.08 0.09 0.12 0.16 0.19 0.25 0.39 0.49 0.53 0.59 0.80 1.33 1.56 1.72 1.69 1.73 1.84 2.11 2.10 2.12 2.33 2.70 3.04 3.19 3.42 3.76 4.12 4.47 4.84 4.97 4.92 5.42 5.97 6.42 6.82 6.74 6.79 6.74 6.71 6.64 6.21 5.88
0.10 0.07 0.08 0.09 0.12 0.14 0.18 0.16 0.25 0.35 0.51 0.71 0.73 1.34 1.62 1.86 1.89 1.76 1.95 2.17 2.29 2.08 2.11 2.46 2.81 3.27 3.25 3.49 3.90 4.26 4.71 5.14 5.48 5.91 6.39 6.91 7.25 7.49 7.30 6.97 6.68 6.31 5.81 5.51
0.12 0.09 0.10 0.12 0.13 0.13 0.16 0.14 0.21 0.32 0.44 0.69 0.76 1.17 1.69 1.94 2.03 1.88 2.00 2.06 2.17 2.05 2.01 2.23 2.38 2.74 3.04 3.29 3.65 4.09 4.45 4.89 5.55 6.33 6.90 7.43 7.76 7.79 7.24 6.65 6.10 5.64 5.19 4.84
0.08 0.09 0.09 0.08 0.09 0.10 0.13 0.21 0.31 0.42 0.58 0.96 0.81 1.13 1.89 2.05 2.11 2.14 2.08 2.00 2.07 2.06 2.08 2.25 2.38 2.68 2.91 3.03 3.32 3.87 4.42 4.80 5.37 6.16 6.75 7.10 7.28 7.22 6.77 6.14 5.60 5.15 4.67 4.26
0.14 0.12 0.11 0.09 0.11 0.12 0.16 0.38 0.75 0.95 1.04 1.01 0.81 1.15 1.95 2.15 2.07 2.07 2.14 2.19 2.26 2.29 2.29 2.27 2.28 2.38 2.64 2.83 3.11 3.57 4.10 4.59 4.99 5.48 5.99 6.04 6.12 5.88 5.49 5.28 4.97 4.44 3.98 3.60
0.31 0.28 0.16 0.11 0.13 0.14 0.16 0.35 0.88 1.12 1.11 1.09 1.15 1.75 2.40 2.34 2.18 2.11 2.00 2.00 2.14 2.20 2.12 2.17 2.16 2.36 2.71 2.98 3.26 3.54 3.79 4.13 4.53 4.71 4.87 4.74 4.60 4.52 4.37 4.16 3.78 3.41 3.13 2.93
0.41 0.40 0.20 0.14 0.13 0.13 0.18 0.26 0.40 0.63 0.83 1.22 1.60 2.15 2.71 2.64 2.40 2.19 2.07 2.01 2.07 2.00 1.93 2.02 2.15 2.46 2.73 3.00 3.18 3.43 3.62 3.72 3.72 3.75 3.83 3.77 3.67 3.53 3.47 3.37 3.06 2.78 2.63 2.46
0.28 0.35 0.22 0.16 0.16 0.16 0.17 0.23 0.36 0.71 1.16 1.49 1.80 2.45 3.02 3.05 2.74 2.22 2.02 1.92 1.98 2.05 2.01 2.04 2.18 2.45 2.52 2.58 2.76 3.02 3.16 3.36 3.35 3.20 3.11 3.18 3.12 2.91 2.75 2.60 2.44 2.28 2.19 2.16
0.24 0.35 0.28 0.22 0.27 0.26 0.27 0.34 0.44 0.73 0.92 1.34 2.06 2.85 2.85 3.13 2.99 2.61 2.28 2.03 2.09 2.19 2.15 2.09 2.23 2.34 2.23 2.17 2.19 2.36 2.60 2.92 2.96 2.86 2.75 2.80 2.72 2.58 2.41 2.27 2.15 2.11 2.00 1.97
0.26 0.41 0.45 0.33 0.30 0.27 0.31 0.40 0.52 0.93 1.06 1.10 1.94 3.07 2.71 2.74 2.91 2.80 2.52 2.33 2.23 2.25 2.27 2.16 2.16 2.22 2.15 2.04 1.94 2.06 2.26 2.36 2.38 2.39 2.49 2.61 2.53 2.42 2.26 2.13 2.07 2.05 1.90 1.85
0.30 0.56 0.92 0.95 0.83 0.52 0.42 0.39 0.41 0.55 0.91 1.28 2.01 3.05 2.91 2.88 2.97 2.83 2.61 2.41 2.35 2.41 2.52 2.43 2.22 2.14 2.13 2.02 2.00 2.08 2.14 2.13 2.08 2.09 2.10 2.17 2.18 2.11 2.05 1.84 1.78 1.80 1.79 1.77
0.28 0.61 1.00 1.48 1.37 0.82 0.57 0.48 0.44 0.56 1.02 1.35 1.84 2.41 2.47 2.71 3.01 2.90 2.76 2.55 2.45 2.54 2.47 2.30 2.22 2.16 2.05 1.99 2.03 2.09 2.05 1.92 1.98 2.02 2.10 2.03 2.02 2.05 2.06 1.95 1.79 1.71 1.70 1.69
0.32 0.65 0.72 0.80 0.64 0.56 0.56 0.55 0.51 0.57 0.81 1.30 1.82 2.28 2.56 2.73 2.76 2.71 2.56 2.39 2.39 2.46 2.41 2.28 2.20 2.13 1.94 1.83 1.83 1.80 1.76 1.71 1.76 1.87 1.97 2.01 1.92 1.85 1.83 1.87 1.74 1.55 1.49 1.45
0.37 0.66 0.69 0.73 0.59 0.58 0.68 0.67 0.68 0.75 0.94 1.23 1.71 2.38 2.43 2.34 2.18 2.20 2.21 2.22 2.34 2.53 2.56 2.39 2.30 2.19 1.99 1.84 1.74 1.69 1.59 1.51 1.58 1.65 1.84 1.94 1.85 1.76 1.67 1.70 1.68 1.63 1.56 1.52
0.47 0.77 0.95 0.96 0.73 0.90 1.34 1.07 1.04 1.14 1.20 1.39 1.85 2.07 1.81 1.85 1.90 1.99 2.02 2.10 2.32 2.50 2.49 2.39 2.38 2.26 2.08 1.93 1.81 1.84 1.67 1.48 1.58 1.62 1.64 1.74 1.74 1.78 1.76 1.71 1.69 1.72 1.75 1.72
0.55 0.88 1.07 1.03 1.24 1.87 1.73 1.12 1.06 1.19 1.32 1.23 1.32 1.37 1.45 1.59 1.72 1.87 1.93 2.06 2.33 2.50 2.61 2.59 2.48 2.31 2.03 1.83 1.74 1.72 1.68 1.56 1.59 1.58 1.51 1.54 1.54 1.58 1.61 1.69 1.73 1.73 1.71 1.70
0.40 0.87 1.24 1.35 1.77 2.02 1.72 1.13 1.06 1.32 1.61 1.24 1.21 1.17 1.27 1.38 1.59 2.02 2.06 2.09 2.27 2.47 2.50 2.50 2.38 2.26 2.16 1.90 1.78 1.66 1.61 1.64 1.56 1.43 1.36 1.32 1.30 1.37 1.40 1.48 1.62 1.72 1.73 1.63
0.43 0.67 1.31 1.55 2.12 2.63 2.21 1.11 0.78 1.18 2.09 1.43 1.13 1.06 1.23 1.45 1.93 2.13 1.90 1.85 1.91 1.98 2.02 2.01 1.96 1.91 1.93 1.75 1.68 1.64 1.61 1.61 1.53 1.36 1.23 1.19 1.24 1.35 1.38 1.42 1.57 1.64 1.69 1.54
1.01 1.10 1.34 1.62 2.16 2.37 1.39 0.86 0.96 1.99 2.43 1.73 1.40 1.25 1.27 1.49 1.67 1.58 1.49 1.60 1.70 1.76 1.82 1.73 1.70 1.73 1.69 1.57 1.57 1.59 1.56 1.49 1.35 1.24 1.22 1.25 1.28 1.39 1.40 1.49 1.60 1.54 1.41 1.41
1.30 1.52 1.62 1.88 2.39 2.48 1.11 0.92 1.61 2.01 1.59 1.53 1.50 1.42 1.36 1.30 1.25 1.29 1.42 1.68 1.79 1.88 1.82 1.74 1.72 1.64 1.57 1.57 1.62 1.61 1.55 1.34 1.25 1.23 1.28 1.33 1.32 1.26 1.25 1.44 1.55 1.49 1.44 1.39
1.50 1.67 1.81 2.04 2.22 1.69 1.04 1.10 1.25 1.36 1.41 1.38 1.36 1.26 1.17 1.20 1.22 1.18 1.34 1.54 1.70 1.84 1.81 1.79 1.72 1.62 1.54 1.52 1.57 1.54 1.39 1.18 1.12 1.23 1.38 1.44 1.37 1.40 1.38 1.37 1.42 1.49 1.51 1.37
1.67 1.38 1.57 1.84 1.75 1.34 1.08 1.02 1.02 1.14 1.24 1.21 1.24 1.19 1.14 1.28 1.30 1.22 1.29 1.46 1.65 1.74 1.62 1.59 1.53 1.46 1.40 1.34 1.30 1.28 1.18 1.11 1.17 1.28 1.39 1.43 1.45 1.51 1.47 1.38 1.25 1.22 1.23 1.21
1.65 1.75 1.95 2.15 1.96 1.64 1.26 1.09 1.10 1.11 1.16 1.22 1.32 1.27 1.24 1.28 1.30 1.28 1.31 1.38 1.42 1.52 1.55 1.49 1.42 1.32 1.20 1.15 1.10 1.03 1.01 1.02 1.13 1.23 1.30 1.32 1.35 1.39 1.43 1.33 1.19 1.13 1.04 0.99
1.43 1.87 2.41 2.59 2.14 2.01 1.54 1.19 1.20 1.25 1.25 1.27 1.26 1.15 1.08 1.08 1.13 1.17 1.18 1.21 1.23 1.31 1.42 1.46 1.35 1.25 1.11 1.06 1.06 0.99 0.93 0.96 1.07 1.13 1.12 1.07 1.12 1.18 1.21 1.24 1.16 0.96 0.80 0.70